AFL592 UNKL-ULLI

Flight info

Callsign AFL592
Flight time N/A
Altitude 32000
Route BASEL2F BASEL B938 SURIP T631 SOREB/K0830F340 T631 NWK M59 SORLI P989 NETLU T756 ODNUS L870 ROMUM T816 AMDEN P979 BEPOL BEPOL1B
Aircraft A321/M-SDE3FGHIRWY/LB1

Departure

Time 2026-05-01 15:24
Airport Krasnoyarsk International Airport (UNKL)

Arrival

Time N/A
Airport Pulkovo Airport (ULLI)
Time Latitude Longitude Altitude Speed Heading
2026-05-01 15:02 56.17936 92.48529 951 ft 0 kts 22°
2026-05-01 15:12 56.17928 92.48523 951 ft 2 kts 22°
2026-05-01 15:12 56.17914 92.48512 951 ft 3 kts 22°
2026-05-01 15:13 56.17868 92.48513 952 ft 3 kts 316°
2026-05-01 15:14 56.17854 92.48558 950 ft 0 kts 289°
2026-05-01 15:17 56.17856 92.48494 951 ft 6 kts 255°
2026-05-01 15:18 56.17694 92.48589 951 ft 16 kts 114°
2026-05-01 15:18 56.17641 92.48806 951 ft 21 kts 114°
2026-05-01 15:19 56.17468 92.49525 949 ft 15 kts 113°
2026-05-01 15:19 56.17389 92.49866 951 ft 15 kts 114°
2026-05-01 15:19 56.17345 92.50039 951 ft 15 kts 114°
2026-05-01 15:20 56.17260 92.50398 951 ft 16 kts 113°
2026-05-01 15:20 56.17215 92.50584 951 ft 16 kts 113°
2026-05-01 15:20 56.17170 92.50772 951 ft 17 kts 113°
2026-05-01 15:21 56.17125 92.50964 950 ft 17 kts 113°
2026-05-01 15:21 56.17078 92.51158 950 ft 17 kts 113°
2026-05-01 15:21 56.17031 92.51358 951 ft 18 kts 113°
2026-05-01 15:21 56.16982 92.51563 949 ft 18 kts 113°
2026-05-01 15:22 56.16903 92.51893 951 ft 13 kts 116°
2026-05-01 15:22 56.16829 92.51978 950 ft 13 kts 158°
2026-05-01 15:22 56.16747 92.52034 951 ft 13 kts 159°
2026-05-01 15:23 56.16673 92.52013 951 ft 11 kts 236°
2026-05-01 15:23 56.16685 92.51874 952 ft 17 kts 290°
2026-05-01 15:23 56.16827 92.51266 950 ft 88 kts 293°
2026-05-01 15:23 56.17149 92.49921 950 ft 144 kts 293°
2026-05-01 15:24 56.17603 92.48024 966 ft 184 kts 293°
2026-05-01 15:24 56.18115 92.45901 1574 ft 183 kts 293°
2026-05-01 15:24 56.18614 92.43805 2222 ft 184 kts 293°
2026-05-01 15:24 56.19122 92.41658 2469 ft 196 kts 292°
2026-05-01 15:25 56.19673 92.39329 2601 ft 210 kts 292°
2026-05-01 15:25 56.20261 92.36841 2752 ft 221 kts 292°
2026-05-01 15:25 56.20881 92.34218 2884 ft 237 kts 292°
2026-05-01 15:25 56.21575 92.31375 3063 ft 258 kts 298°
2026-05-01 15:26 56.22777 92.28957 3611 ft 264 kts 323°
2026-05-01 15:26 56.24360 92.27225 4270 ft 268 kts 332°
2026-05-01 15:26 56.26047 92.25782 4954 ft 269 kts 335°
2026-05-01 15:26 56.27759 92.24394 5651 ft 271 kts 334°
2026-05-01 15:27 56.29474 92.22963 6357 ft 272 kts 333°
2026-05-01 15:27 56.31179 92.21470 6993 ft 274 kts 332°
2026-05-01 15:27 56.32881 92.19913 7647 ft 275 kts 331°
2026-05-01 15:28 56.36267 92.16698 8938 ft 278 kts 330°
2026-05-01 15:28 56.37974 92.15052 9590 ft 279 kts 330°
2026-05-01 15:28 56.39686 92.13379 10201 ft 281 kts 328°
2026-05-01 15:29 56.43209 92.09403 10511 ft 317 kts 325°
2026-05-01 15:29 56.45099 92.07137 10673 ft 333 kts 324°
2026-05-01 15:29 56.49032 92.02431 11713 ft 341 kts 325°
2026-05-01 15:30 56.53026 91.97715 12912 ft 344 kts 326°
2026-05-01 15:31 56.61139 91.88179 15127 ft 351 kts 325°
2026-05-01 15:31 56.65214 91.83342 16139 ft 354 kts 325°
2026-05-01 15:32 56.69356 91.78418 17127 ft 358 kts 325°
2026-05-01 15:32 56.73539 91.73444 18080 ft 361 kts 325°
2026-05-01 15:33 56.79725 91.65448 19301 ft 366 kts 321°
2026-05-01 15:34 56.85810 91.56832 20434 ft 372 kts 320°